This is the latest recevied weather packets stored in our database for station/object K9RJT. If no packets are shown the sender has not sent any weather packets the latest 10 day(s).
| Time | Temp. | Humidity | Pressure | Rain* | Wind** | Luminosity | Snow |
|---|---|---|---|---|---|---|---|
| 1778090929 | 22.78° C | 37% | 1013.9 hPa | 0 mm | - | 642 W/m² | - |
| 1778090625 | 22.78° C | 38% | 1014.2 hPa | 0 mm | - | 634 W/m² | - |
| 1778090322 | 22.22° C | 39% | 1014.2 hPa | 0 mm | - | 628 W/m² | - |
| 1778090018 | 22.22° C | 37% | 1014.2 hPa | 0 mm | - | 624 W/m² | - |
| 1778089716 | 21.67° C | 39% | 1014 hPa | 0 mm | - | 616 W/m² | - |
| 1778089413 | 22.78° C | 39% | 1014.3 hPa | 0 mm | - | 609 W/m² | - |
| 1778089110 | 22.78° C | 41% | 1014.2 hPa | 0 mm | - | 601 W/m² | - |
| 1778088807 | 22.78° C | 40% | 1014.1 hPa | 0 mm | - | 593 W/m² | - |
| 1778088504 | 21.67° C | 43% | 1014.6 hPa | 0 mm | - | 584 W/m² | - |
| 1778088201 | 21.11° C | 43% | 1014.5 hPa | 0 mm | - | 577 W/m² | - |
| 1778087898 | 21.11° C | 43% | 1014.5 hPa | 0 mm | - | 568 W/m² | - |
| 1778087595 | 21.11° C | 44% | 1014.5 hPa | 0 mm | - | 559 W/m² | - |
| 1778087293 | 20° C | 46% | 1014.5 hPa | 0 mm | - | 550 W/m² | - |
| 1778086988 | 20.56° C | 45% | 1014.6 hPa | 0 mm | - | 541 W/m² | - |
| 1778086688 | 20° C | 47% | 1014.5 hPa | 0 mm | - | 531 W/m² | - |
| 1778086385 | 20.56° C | 45% | 1014.6 hPa | 0 mm | - | 523 W/m² | - |
| 1778086082 | 19.44° C | 48% | 1014.7 hPa | 0 mm | - | 512 W/m² | - |
| 1778085778 | 19.44° C | 48% | 1014.7 hPa | 0 mm | - | 500 W/m² | - |
| 1778085475 | 19.44° C | 48% | 1014.8 hPa | 0 mm | - | 490 W/m² | - |
| 1778085170 | 18.89° C | 48% | 1015.1 hPa | 0 mm | - | 480 W/m² | - |
| 1778084866 | 18.89° C | 48% | 1015 hPa | 0 mm | - | 467 W/m² | - |
| 1778084564 | 18.33° C | 50% | 1015.1 hPa | 0 mm | - | 455 W/m² | - |
| 1778084261 | 18.33° C | 51% | 1014.8 hPa | 0 mm | - | 445 W/m² | - |
| 1778083958 | 18.33° C | 50% | 1014.9 hPa | 0 mm | - | 432 W/m² | - |
| 1778083656 | 17.22° C | 52% | 1014.9 hPa | 0 mm | - | 420 W/m² | - |
* Rain latest hour (hover to see other rain measurements)
** Current wind speed in m/s (hover to see current wind gust speed)